Погода в Ауре

Россия / Еврейская автономная область     48°37′38″N   133°26′11″E
темп.,
°C
ветер,
м/с
пор.,
м/с
влажн.,
%
обл.,
%
осадки,
мм/ч
давл.,
гПа
погр.,
м
12 мая, ср
ср1201:00+4ссв119221 0.0 101810
04:00+4всв3393100 0.0 101826
07:00+5в3692100 0.0 1017179
10:00+9вюв6871100 0.0 1014493
13:00+14ююв71057100 0.0 10121694
16:00+12ю61071100 0.4 10101312
19:00+9ююв71491100 7.0 1009781
22:00+9ю51187100 7.3 1009529
13 мая, чт
чт1301:00+8ю51190100 0.0 1008467
04:00+8ююв5119297 0.3 1006516
07:00+8ююв6108985 0.1 1006532
10:00+13юз6870100 0.2 10051065
13:00+13зюз5765100 0.1 1005984
16:00+14з466578 0.3 1005850
19:00+15з356450 0.2 1005805
22:00+11зсз228294 0.8 100719
14 мая, пт
пт1401:00+9зюз48875 0.0 1007140
04:00+8з379110 0.0 1008157
07:00+8з36876 0.0 1009187
10:00+14сз346584 0.0 1010677
13:00+17з235146 0.0 10091209
16:00+19з2345100 0.0 10081203
19:00+18вюв2351100 0.0 1008120
22:00+15вюв61161100 0.0 1007249
15 мая, сб
сб1501:00+13вюв61266100 0.0 1005331
04:00+12юв4972100 0.2 1003281
07:00+12ююв81595100 8.9 999545
10:00+12юз61296100 16.4 998700
13:00+14зюз81172100 0.9 9981204
16:00+19зюз8124291 1.0 9973085
19:00+15з8135732 0.1 9991295
22:00+11з613635 0.1 1001433
16 мая, вс
вс1601:00+9з6117594 0.1 1001401
04:00+8зюз610785 0.1 1002317
07:00+8з59815 0.0 1002308
10:00+13з686041 0.0 10021335
13:00+16з81154100 0.1 10011960
16:00+17зсз6105182 0.1 10001716
19:00+17сз58511 0.0 1000570
22:00+12всв33660 0.0 100122